Hourly Data Report for September 14, 2012

MONTREAL MIRABEL INTL A
QUEBEC

45°40'50.000" N
74°02'19.000" W
82.30 m
7034900
YMX

Download Data

Hourly Data (September 2012)
Hourly Data Report for September 14, 2012
TIME
LST
Temp Definition
°C
Dew Point Definition
°C
Rel Hum Definition
%
Precip. Amount Definition
mm

Wind Dir Definition
10's deg

Wind Spd Definition
km/h
Visibility Definition
km
Stn Press Definition
kPa
Hmdx Definition


Wind Chill Definition


Weather Definition


00:00 18.7 14.4 76   22 6 40.2 101.19     LegendNANA
01:00 18.2 14.4 78   22 5 40.2 LegendMM     Clear
02:00 15.7 14.3 91   23 4 40.2 101.16     LegendNANA
03:00 14.4 13.9 97     0 40.2 101.14     LegendNANA
04:00 13.8 13.5 98   31 4 40.2 101.13     Clear
05:00 13.4 13.3 99     0 40.2 101.12     Fog
06:00 13.3 13.2 99     0 40.2 101.10     Fog
07:00 14.4 14.3 99     0 24.1 101.10     Fog
08:00 19.4 15.3 77   21 14 24.1 101.09     LegendNANA
09:00 20.9 16.2 74   25 11 24.1 101.06 26   LegendNANA
10:00 22.3 17.1 72   21 12 24.1 101.03 28   Cloudy
11:00 23.1 18.1 73   27 9 72.4 101.00 29   LegendNANA
12:00 23.3 18.1 72   26 8 24.1 100.95 29   LegendNANA
13:00 23.8 17.9 69   27 8 40.2 100.88 30   Cloudy
14:00 23.7 17.6 68   26 6 40.2 100.81 29   LegendNANA
15:00 23.2 17.7 71   26 5 40.2 100.74 29   LegendNANA
16:00 23.2 18.0 72   22 4 40.2 100.64 29   Cloudy
17:00 23.3 18.3 73   19 5 19.3 100.56 30   LegendNANA
18:00 21.5 18.2 81   21 4 19.3 100.47 28   LegendNANA
19:00 19.6 15.3 76   30 21 16.1 100.55     Thunderstorms,Rain Showers
20:00 15.1 13.7 91   33 22 16.1 100.59     Thunderstorms,Rain Showers
21:00 14.5 13.6 94     0 16.1 100.72     Rain Showers
22:00 14.0 13.9 99   18 12 24.1 100.62     Rain Showers
23:00 14.2 13.9 98   20 10 24.1 100.61     Rain Showers

Notes on Data Quality.

Legend

  • E = Estimated
  • M = Missing
  • NA = Not Available*
  • [empty] = Indicates an unobserved value
Date modified: